Walnut Ridge, AR

5:39 PM CST on December 14, 2017 (GMT -0600)
Walnut Ridge Regional

Weather History for KARG - November, 2014

Change the Weather History Date:

Tuesday, November 11, 2014

  Actual Average Record
Temperature  
Mean Temperature 40 °F -  
Max Temperature 59 °F 56 °F 78 °F (2010)
Min Temperature 21 °F 40 °F 21 °F (2014)
Degree Days  
Heating Degree Days 25    
Moisture  
Dew Point 37 °F    
Average Humidity 80    
Maximum Humidity 100    
Minimum Humidity 62    
Precipitation  
Precipitation 0.00 in - - ()
Sea Level Pressure  
Sea Level Pressure 29.97 in    
Wind  
Wind Speed 14 mph (WNW)    
Max Wind Speed 25 mph    
Max Gust Speed 32 mph    
Visibility 10 miles    
Events      
Averages and records for this station are not official NWS values.
T = Trace of Precipitation, MM = Missing Value Source: NWS Daily Summary

Daily Weather History Graph

Daily Weather History Graph

Search for Another Location

Airport or City:

Trip Planner

Search our weather history database for the weather conditions in past years. The results will help you decide how hot, cold, wet, or windy it might be!

Date:

Astronomy

Nov. 11, 2014 Rise Set
Actual Time 6:36 AM CST 4:58 PM CST
Civil Twilight 6:09 AM CST 5:25 PM CST
Nautical Twilight 5:38 AM CST 5:56 PM CST
Astronomical Twilight 5:08 AM CST 6:26 PM CST
Moon 9:22 PM CST (11/11) 10:42 AM CST (11/11)
Length of Visible Light 11h 16m
Length of Day
10h 22m
Waning Gibbous, 76% of the Moon is Illuminated
Nov 11
Waning Gibbous
Nov 14
Last Quarter
Nov 22
New
Nov 29
First Quarter
Dec 6
Full

Hourly Weather History & Observations

Time (CST) Temp. Windchill Dew Point Humidity Pressure Visibility Wind Dir Wind Speed Gust Speed Precip Events Conditions
12:15 AM 53.6 °F - 46.4 °F 77% 29.75 in 10.0 mi SSE 9.2 mph - N/A   Clear
12:35 AM 55.4 °F - 46.4 °F 72% 29.74 in 10.0 mi South 12.7 mph - N/A   Clear
12:55 AM 55.4 °F - 46.4 °F 72% 29.74 in 10.0 mi South 12.7 mph - N/A   Clear
1:15 AM 55.4 °F - 46.4 °F 72% 29.74 in 10.0 mi South 12.7 mph - N/A   Clear
1:35 AM 55.4 °F - 48.2 °F 77% 29.74 in 10.0 mi South 12.7 mph - N/A   Clear
1:55 AM 55.4 °F - 48.2 °F 77% 29.74 in 10.0 mi South 13.8 mph - N/A   Clear
2:15 AM 55.4 °F - 48.2 °F 77% 29.74 in 10.0 mi South 15.0 mph - N/A   Clear
2:35 AM 55.4 °F - 50.0 °F 82% 29.75 in 10.0 mi South 13.8 mph - N/A   Clear
2:55 AM 55.4 °F - 50.0 °F 82% 29.75 in 10.0 mi South 15.0 mph - N/A   Partly Cloudy
3:15 AM 57.2 °F - 51.8 °F 82% 29.76 in 10.0 mi South 12.7 mph - N/A   Mostly Cloudy
3:35 AM 57.2 °F - 51.8 °F 82% 29.74 in 10.0 mi South 11.5 mph - N/A   Overcast
3:55 AM 57.2 °F - 51.8 °F 82% 29.75 in 10.0 mi South 11.5 mph - N/A   Overcast
4:15 AM 57.2 °F - 51.8 °F 82% 29.75 in 10.0 mi South 11.5 mph - N/A   Mostly Cloudy
4:35 AM 57.2 °F - 51.8 °F 82% 29.75 in 10.0 mi South 10.4 mph - N/A   Mostly Cloudy
4:55 AM 57.2 °F - 51.8 °F 82% 29.75 in 10.0 mi South 10.4 mph - N/A   Overcast
5:15 AM 57.2 °F - 51.8 °F 82% 29.76 in 10.0 mi South 10.4 mph - N/A   Overcast
5:35 AM 57.2 °F - 53.6 °F 88% 29.76 in 10.0 mi South 10.4 mph - N/A   Overcast
5:55 AM 57.2 °F - 53.6 °F 88% 29.77 in 10.0 mi South 10.4 mph - N/A   Overcast
6:15 AM 57.2 °F - 53.6 °F 88% 29.78 in 10.0 mi South 10.4 mph - N/A   Overcast
6:35 AM 57.2 °F - 53.6 °F 88% 29.78 in 10.0 mi South 11.5 mph - N/A   Overcast
6:55 AM 57.2 °F - 53.6 °F 88% 29.78 in 10.0 mi South 12.7 mph - N/A   Overcast
7:15 AM 57.2 °F - 53.6 °F 88% 29.79 in 10.0 mi South 13.8 mph - N/A   Scattered Clouds
7:35 AM 59.0 °F - 53.6 °F 82% 29.81 in 10.0 mi SSW 11.5 mph - N/A   Mostly Cloudy
7:55 AM 59.0 °F - 53.6 °F 82% 29.82 in 5.0 mi SSW 9.2 mph - N/A   Overcast
8:15 AM 57.2 °F - 55.4 °F 94% 29.82 in 10.0 mi SSW 6.9 mph - N/A   Overcast
8:35 AM 57.2 °F - 55.4 °F 94% 29.84 in 4.0 mi WSW 5.8 mph - N/A   Overcast
8:55 AM 57.2 °F - 51.8 °F 82% 29.86 in 8.0 mi WNW 23.0 mph 27.6 mph N/A   Overcast
9:15 AM 53.6 °F - 42.8 °F 67% 29.87 in 10.0 mi NW 23.0 mph 29.9 mph N/A   Overcast
9:35 AM 50.0 °F - 39.2 °F 66% 29.90 in 10.0 mi NW 25.3 mph 29.9 mph N/A   Overcast
9:55 AM 48.2 °F - 35.6 °F 62% 29.91 in 10.0 mi NW 23.0 mph - N/A   Overcast
10:15 AM 46.4 °F 38.5 °F 37.4 °F 71% 29.93 in 8.0 mi NW 21.9 mph 28.8 mph N/A   Overcast
10:35 AM 46.4 °F 38.7 °F 33.8 °F 62% 29.94 in 10.0 mi NW 20.7 mph 26.5 mph N/A   Overcast
10:55 AM 44.6 °F 35.5 °F 33.8 °F 66% 29.96 in 10.0 mi NNW 25.3 mph 32.2 mph N/A   Overcast
11:15 AM 42.8 °F 35.1 °F 33.8 °F 70% 29.96 in 10.0 mi NNW 16.1 mph - N/A   Overcast
11:35 AM 39.2 °F 29.0 °F 33.8 °F 81% 29.97 in 10.0 mi NNW 21.9 mph 27.6 mph N/A   Overcast
11:55 AM 39.2 °F 29.0 °F 32.0 °F 75% 29.97 in 10.0 mi NNW 21.9 mph - N/A   Overcast
12:15 PM 35.6 °F 24.5 °F 32.0 °F 87% 29.97 in 10.0 mi NW 20.7 mph - N/A   Overcast
12:35 PM 35.6 °F 24.2 °F 30.2 °F 81% 29.97 in 10.0 mi NW 21.9 mph 27.6 mph N/A   Overcast
12:55 PM 35.6 °F 24.8 °F 32.0 °F 87% 29.98 in 10.0 mi NW 19.6 mph 24.2 mph N/A   Overcast
1:15 PM 33.8 °F 22.5 °F 32.0 °F 93% 29.99 in 10.0 mi NW 19.6 mph 25.3 mph N/A   Overcast
1:35 PM 33.8 °F 22.8 °F 32.0 °F 93% 29.99 in 10.0 mi NNW 18.4 mph - N/A   Overcast
1:55 PM 35.6 °F 26.2 °F 32.0 °F 87% 30.00 in 10.0 mi NNW 15.0 mph 20.7 mph N/A   Overcast
2:15 PM 35.6 °F 26.2 °F 32.0 °F 87% 30.00 in 10.0 mi NNW 15.0 mph - N/A   Overcast
2:35 PM 37.4 °F 29.8 °F 32.0 °F 81% 30.02 in 10.0 mi NW 11.5 mph - N/A   Overcast
2:55 PM 37.4 °F 27.2 °F 32.0 °F 81% 30.03 in 10.0 mi NNW 19.6 mph - N/A   Overcast
3:15 PM 39.2 °F 29.6 °F 30.2 °F 70% 30.03 in 10.0 mi NW 19.6 mph - N/A   Overcast
3:35 PM 39.2 °F 29.6 °F 30.2 °F 70% 30.04 in 10.0 mi NW 19.6 mph - N/A   Overcast
3:55 PM 37.4 °F 28.2 °F 30.2 °F 75% 30.06 in 10.0 mi NW 16.1 mph - N/A   Overcast
4:15 PM 37.4 °F 27.5 °F 28.4 °F 70% 30.07 in 10.0 mi NW 18.4 mph - N/A   Overcast
4:35 PM 37.4 °F 27.5 °F 28.4 °F 70% 30.08 in 10.0 mi NW 18.4 mph 23.0 mph N/A   Overcast
4:55 PM 39.2 °F 30.5 °F 28.4 °F 65% 30.08 in 10.0 mi NNW 16.1 mph - N/A   Overcast
5:15 PM 35.6 °F 26.2 °F 28.4 °F 75% 30.09 in 10.0 mi NNW 15.0 mph - N/A   Overcast
5:35 PM 35.6 °F 27.1 °F 26.6 °F 70% 30.10 in 10.0 mi NNW 12.7 mph - N/A   Scattered Clouds
5:55 PM 33.8 °F 25.8 °F 28.4 °F 81% 30.12 in 10.0 mi NNW 10.4 mph - N/A   Partly Cloudy
6:15 PM 33.8 °F 25.3 °F 28.4 °F 81% 30.14 in 10.0 mi North 11.5 mph - N/A   Scattered Clouds
6:35 PM 30.2 °F 20.8 °F 26.6 °F 86% 30.15 in 10.0 mi NNW 11.5 mph - N/A   Partly Cloudy
6:55 PM 30.2 °F 20.8 °F 26.6 °F 86% 30.16 in 10.0 mi NNW 11.5 mph - N/A   Clear
7:15 PM 30.2 °F 19.8 °F 26.6 °F 86% 30.17 in 10.0 mi North 13.8 mph - N/A   Clear
7:35 PM 33.8 °F 24.3 °F 24.8 °F 70% 30.18 in 10.0 mi North 13.8 mph - N/A   Clear
7:55 PM 24.8 °F 12.9 °F 23.0 °F 93% 30.19 in 10.0 mi North 13.8 mph - N/A   Clear
8:15 PM 26.6 °F 16.8 °F 24.8 °F 93% 30.20 in 10.0 mi NNW 10.4 mph - N/A   Clear
8:35 PM 24.8 °F 12.4 °F 24.8 °F 100% 30.21 in 10.0 mi NNW 15.0 mph - N/A   Clear
8:55 PM 24.8 °F 12.9 °F 24.8 °F 100% 30.21 in 10.0 mi NNW 13.8 mph - N/A   Clear
9:15 PM 23.0 °F 11.7 °F 21.2 °F 93% 30.22 in 10.0 mi NNW 11.5 mph - N/A   Clear
9:35 PM 23.0 °F 11.7 °F 21.2 °F 93% 30.23 in 10.0 mi North 11.5 mph - N/A   Clear
9:55 PM 21.2 °F 10.1 °F 21.2 °F 100% 30.23 in 10.0 mi NNW 10.4 mph - N/A   Clear
10:15 PM 28.4 °F 18.5 °F 23.0 °F 80% 30.24 in 10.0 mi NNW 11.5 mph - N/A   Clear
10:35 PM 32.0 °F 23.6 °F 24.8 °F 75% 30.25 in 10.0 mi NNW 10.4 mph - N/A   Clear
10:55 PM 32.0 °F 23.6 °F 23.0 °F 69% 30.25 in 10.0 mi NNW 10.4 mph - N/A   Clear
11:15 PM 30.2 °F 21.9 °F 23.0 °F 75% 30.26 in 10.0 mi NNW 9.2 mph - N/A   Clear
11:35 PM 30.2 °F 22.6 °F 23.0 °F 75% 30.26 in 10.0 mi NNW 8.1 mph - N/A   Clear
11:55 PM 30.2 °F 22.6 °F 21.2 °F 69% 30.26 in 10.0 mi NW 8.1 mph - N/A   Clear